Tracking 29892 objects as of 21-Nov-2024
HD Live streaming from Space Station
objects crossing your sky now

SL-8 R/B

Track SL-8 R/B now!
10-day predictions


NORAD ID: 10992
Int'l Code: 1978-074B
Perigee: 962.6 km
Apogee: 992.7 km
Inclination: 82.9 °
Period: 104.5 minutes
Semi major axis: 7348 km
RCS: 4.7594 m2 (large)
Launch date: July 27, 1978
Source: Commonwealth of Independent States (former USSR) (CIS)
Launch site: PLESETSK MISSILE AND SPACE COMPLEX (PKMTR)

Note: This is a ROCKET BODY
Your satellite tracking list
Your tracking list is empty




NASA's NSSDC Master Catalog

Two Line Element Set (TLE):
1 10992U 78074B   24325.55142687  .00000144  00000-0  12799-3 0  9991
2 10992  82.9354  51.9504 0020522  83.1912 344.0095 13.78133037508311
Source of the keplerian elements: AFSPC